FW1003 Weather Reports


Display with metric or nautical units.
time (UTC)temp
F
wind
direction
speed
MPH
gust
MPH
rain 1hr
in
rain 24hr
in
rain mn
in
humidity
%
barometer
mb
20260902211556 81 314 0.0 1.0 0.00 0.00 0.00 71 1011.4
20260902210055 81 314 0.0 0.0 0.00 0.00 0.00 70 1011.5
20260902204556 81 314 1.0 2.0 0.00 0.00 0.00 71 1011.4
20260902203054 81 314 0.0 2.0 0.00 0.00 0.00 71 1011.3
20260902201558 81 314 0.0 1.0 0.00 0.00 0.00 70 1011.3
20260902200054 81 314 1.0 4.0 0.00 0.00 0.00 71 1011.2
20260902194554 81 304 0.0 1.0 0.00 0.00 0.00 70 1011.3
20260902193103 81 304 0.0 1.0 0.00 0.00 0.00 69 1011.2
20260902191603 82 304 0.0 2.0 0.00 0.00 0.00 69 1011.2
20260902190050 83 304 0.0 1.0 0.00 0.00 0.00 68 1011.3
20260902184550 83 304 1.0 4.0 0.00 0.00 0.00 68 1011.3
20260902183110 83 300 0.0 5.0 0.00 0.00 0.00 68 1011.1
20260902181555 84 300 2.0 5.0 0.00 0.00 0.00 68 1011.0
20260902180047 84 320 2.0 6.0 0.00 0.00 0.00 68 1011.1
20260902174547 84 300 1.0 5.0 0.00 0.00 0.00 67 1011.2
20260902173047 84 313 2.0 5.0 0.00 0.00 0.00 67 1011.1
20260902171553 84 302 2.0 4.0 0.00 0.00 0.00 66 1011.2
20260902170045 85 323 1.0 6.0 0.00 0.00 0.00 65 1011.0
20260902164544 85 320 3.0 8.0 0.00 0.00 0.00 65 1011.1
20260902163053 85 319 2.0 9.0 0.00 0.00 0.00 65 1011.0
20260902161543 85 304 3.0 6.0 0.00 0.00 0.00 66 1010.9
20260902160042 85 322 0.0 8.0 0.00 0.00 0.00 65 1010.8
20260902154643 86 307 2.0 6.0 0.00 0.00 0.00 64 1010.9
20260902153051 86 318 2.0 10.0 0.00 0.00 0.00 64 1011.0
20260902151541 87 295 2.0 9.0 0.00 0.00 0.00 64 1011.0
20260902150039 87 360 2.0 12.0 0.00 0.00 0.00 63 1011.0
20260902144540 87 331 2.0 9.0 0.00 0.00 0.00 63 1011.1
20260902143037 88 327 3.0 10.0 0.00 0.00 0.00 61 1011.2
20260902141537 89 317 1.0 10.0 0.00 0.00 0.00 60 1011.2
20260902140036 89 327 2.0 11.0 0.00 0.00 0.00 58 1011.1
20260902134543 89 355 4.0 10.0 0.00 0.00 0.00 59 1011.2
20260902133034 90 326 2.0 11.0 0.00 0.00 0.00 57 1011.1
20260902131541 91 306 2.0 11.0 0.00 0.00 0.00 57 1011.3
20260902130035 90 42 4.0 12.0 0.00 0.00 0.00 58 1011.3
20260902124531 91 306 4.0 12.0 0.00 0.00 0.00 57 1011.3
20260902123034 91 344 4.0 10.0 0.00 0.00 0.00 57 1011.5
20260902121529 92 298 4.0 12.0 0.00 0.00 0.00 56 1011.6
20260902120028 92 333 5.0 11.0 0.00 0.00 0.00 56 1011.5
20260902114529 92 209 3.0 8.0 0.00 0.00 0.00 56 1011.7
20260902113029 92 280 3.0 11.0 0.00 0.00 0.00 56 1012.0
20260902111523 93 258 2.0 4.0 0.00 0.00 0.00 56 1012.0
20260902110033 93 5 2.0 11.0 0.00 0.00 0.00 57 1012.1
20260902104520 92 21 3.0 8.0 0.00 0.00 0.00 56 1012.2
20260902103020 92 307 2.0 11.0 0.00 0.00 0.00 57 1012.3
20260902101518 93 293 1.0 6.0 0.00 0.00 0.00 57 1012.3
20260902100017 92 315 2.0 8.0 0.00 0.00 0.00 57 1012.4
20260902094522 92 221 2.0 10.0 0.00 0.00 0.00 58 1012.4
20260902093024 92 207 2.0 10.0 0.00 0.00 0.00 58 1012.7
20260902091514 92 271 1.0 9.0 0.00 0.00 0.00 58 1012.8
20260902090013 92 324 3.0 6.0 0.00 0.00 0.00 57 1012.9
20260902084513 92 24 3.0 8.0 0.00 0.00 0.00 57 1013.0
20260902083007 92 61 1.0 8.0 0.00 0.00 0.00 57 1013.0
20260902081503 92 172 1.0 4.0 0.00 0.00 0.00 58 1013.1
20260902080002 92 126 1.0 5.0 0.00 0.00 0.00 59 1013.1
20260902074605 92 250 1.0 5.0 0.00 0.00 0.00 59 1013.1
20260902073054 91 246 1.0 4.0 0.00 0.00 0.00 60 1013.3
20260902071552 90 80 1.0 4.0 0.00 0.00 0.00 60 1013.2
20260902070049 89 293 1.0 3.0 0.00 0.00 0.00 61 1013.2
20260902064546 89 318 1.0 4.0 0.00 0.00 0.00 62 1013.1
20260902063045 89 333 1.0 3.0 0.00 0.00 0.00 62 1013.1
20260902061643 89 331 1.0 4.0 0.00 0.00 0.00 61 1013.0
20260902060049 88 301 2.0 6.0 0.00 0.00 0.00 63 1013.0
20260902054548 88 140 0.0 3.0 0.00 0.00 0.00 64 1013.0
20260902053033 87 12 0.0 3.0 0.00 0.00 0.00 64 1013.1
20260902051528 85 304 0.0 2.0 0.00 0.00 0.00 66 1013.1
20260902050026 84 304 0.0 2.0 0.00 0.00 0.00 67 1013.1
20260902044519 82 304 0.0 2.0 0.00 0.00 0.00 68 1012.9
20260902043014 81 303 0.0 2.0 0.00 0.00 0.00 70 1012.9
20260902041509 80 304 0.0 3.0 0.00 0.00 0.00 71 1012.8
20260902040007 79 303 1.0 3.0 0.00 0.00 0.00 72 1012.8
20260902034503 78 302 1.0 3.0 0.00 0.00 0.00 73 1012.7
20260902033100 78 302 0.0 2.0 0.00 0.00 0.00 73 1012.6
20260902031555 77 302 0.0 2.0 0.00 0.00 0.00 74 1012.8
20260902030054 77 302 0.0 2.0 0.00 0.00 0.00 74 1012.6
20260902024555 77 302 0.0 0.0 0.00 0.00 0.00 74 1012.7
20260902023107 77 302 0.0 2.0 0.00 0.00 0.00 74 1012.6
20260902021554 77 302 0.0 2.0 0.00 0.00 0.00 74 1012.5
20260902020053 77 302 0.0 2.0 0.00 0.00 0.00 74 1012.4
20260902014652 77 302 0.0 3.0 0.00 0.00 0.00 74 1012.4
20260902013055 77 302 1.0 2.0 0.00 0.00 0.00 74 1012.3
20260902011550 77 302 0.0 3.0 0.00 0.00 0.00 74 1012.3
20260902010050 77 302 0.0 2.0 0.00 0.00 0.00 74 1012.4
20260902004550 77 302 0.0 1.0 0.00 0.00 0.00 73 1012.5
20260902003046 78 302 0.0 2.0 0.00 0.00 0.00 72 1012.4
20260902001600 78 302 1.0 3.0 0.00 0.00 0.00 72 1012.5
20260902000045 79 299 1.0 3.0 0.00 0.00 0.00 72 1012.5
20260901234543 79 296 1.0 3.0 0.00 0.00 0.00 73 1012.5
20260901233040 79 296 0.0 0.0 0.00 0.00 0.00 72 1012.4
20260901231540 79 296 0.0 2.0 0.00 0.00 0.00 72 1012.5
20260901230039 79 296 1.0 3.0 0.00 0.00 0.00 72 1012.6
20260901224538 79 296 1.0 3.0 0.00 0.00 0.00 72 1012.5
20260901223045 79 296 1.0 3.0 0.00 0.00 0.00 73 1012.5
20260901221552 79 293 1.0 3.0 0.00 0.00 0.00 73 1012.3
20260901220039 79 293 0.0 1.0 0.00 0.00 0.00 73 1012.3
20260901214534 79 293 0.0 0.0 0.00 0.00 0.00 72 1012.4
20260901213032 80 293 0.0 0.0 0.00 0.00 0.00 71 1012.5